Lyndonville, VT

6:40 AM EDT on March 27, 2017 (GMT -0400)
Lyndonville

Weather History for KCDA - April, 2014

Change the Weather History Date:

Wednesday, April 30, 2014

  Actual Average (K1V4) Record (K1V4)
Temperature  
Mean Temperature 40 °F -  
Max Temperature 45 °F 59 °F 86 °F (1903)
Min Temperature 36 °F 34 °F 24 °F (1978)
Degree Days  
Heating Degree Days 24    
Moisture  
Dew Point 34 °F    
Average Humidity 80    
Maximum Humidity 92    
Minimum Humidity 60    
Precipitation  
Precipitation 0.00 in - - ()
Sea Level Pressure  
Sea Level Pressure 30.36 in    
Wind  
Wind Speed 6 mph (South)    
Max Wind Speed 13 mph    
Max Gust Speed 16 mph    
Visibility 9 miles    
Events Rain    
Averages and records for this station are not official NWS values.
T = Trace of Precipitation, MM = Missing Value Source: NWS Daily Summary

Daily Weather History Graph

Daily Weather History Graph

Search for Another Location

Airport or City:

Trip Planner

Search our weather history database for the weather conditions in past years. The results will help you decide how hot, cold, wet, or windy it might be!

Date:

Astronomy

Apr. 30, 2014 Rise Set
Actual Time 5:39 AM EDT 7:51 PM EDT
Civil Twilight 5:08 AM EDT 8:23 PM EDT
Nautical Twilight 4:28 AM EDT 9:03 PM EDT
Astronomical Twilight 3:44 AM EDT 9:47 PM EDT
Moon 6:37 AM EDT (4/30) 9:29 PM EDT (4/30)
Length of Visible Light 15h 15m
Length of Day
14h 11m
New Moon, 2% of the Moon is Illuminated
Apr 30
New Moon
May 6
First Quarter
May 14
Full
May 21
Last Quarter
May 28
New

Hourly Weather History & Observations

Time (EDT) Temp. Windchill Dew Point Humidity Pressure Visibility Wind Dir Wind Speed Gust Speed Precip Events Conditions
12:15 AM 41.2 °F 38.2 °F 32.2 °F 70% 30.47 in 10.0 mi South 4.6 mph - N/A   Drizzle
12:35 AM 40.5 °F 34.6 °F 32.2 °F 72% 30.47 in 10.0 mi South 9.2 mph - N/A Rain Light Rain
12:55 AM 39.4 °F 34.5 °F 32.0 °F 75% 30.48 in 10.0 mi South 6.9 mph - N/A Rain Rain
1:15 AM 38.8 °F 33.8 °F 32.0 °F 76% 30.48 in 10.0 mi South 6.9 mph - N/A Rain Light Rain
1:35 AM 38.7 °F 34.3 °F 32.4 °F 78% 30.48 in 10.0 mi South 5.8 mph - N/A   Overcast
1:55 AM 38.7 °F 35.2 °F 32.5 °F 79% 30.48 in 10.0 mi SSE 4.6 mph - N/A   Overcast
2:15 AM 38.7 °F 34.3 °F 32.2 °F 78% 30.48 in 10.0 mi SSE 5.8 mph - N/A   Overcast
2:35 AM 38.5 °F 33.4 °F 32.0 °F 78% 30.49 in 10.0 mi SSE 6.9 mph - N/A   Light Drizzle
2:55 AM 38.1 °F 33.7 °F 31.8 °F 78% 30.49 in 10.0 mi SSE 5.8 mph - N/A Rain Light Rain
3:15 AM 38.3 °F 35.9 °F 32.0 °F 78% 30.48 in 10.0 mi ESE 3.5 mph - N/A   Drizzle
3:35 AM 37.6 °F - 32.2 °F 81% 30.48 in 10.0 mi Calm Calm - N/A Rain Rain
3:55 AM 37.4 °F - 32.0 °F 81% 30.48 in 10.0 mi Calm Calm - N/A Rain Light Rain
4:15 AM 37.4 °F 34.9 °F 32.2 °F 81% 30.47 in 10.0 mi SSE 3.5 mph - N/A Rain Light Rain
4:35 AM 37.0 °F 33.3 °F 32.5 °F 84% 30.47 in 10.0 mi South 4.6 mph - N/A Rain Light Rain
4:55 AM 36.9 °F 34.3 °F 32.9 °F 86% 30.48 in 10.0 mi South 3.5 mph - N/A Rain Rain
5:15 AM 36.9 °F 33.1 °F 33.1 °F 86% 30.48 in 10.0 mi SSE 4.6 mph - N/A   Overcast
5:35 AM 36.9 °F 31.4 °F 32.9 °F 86% 30.48 in 10.0 mi South 6.9 mph - N/A   Drizzle
5:55 AM 36.9 °F 32.2 °F 33.4 °F 87% 30.50 in 10.0 mi SSE 5.8 mph - N/A   Drizzle
6:15 AM 36.9 °F 33.1 °F 33.8 °F 89% 30.49 in 10.0 mi SE 4.6 mph - N/A   Light Drizzle
6:35 AM 36.9 °F 33.1 °F 34.0 °F 89% 30.48 in 7.0 mi SE 4.6 mph - N/A   Light Drizzle
6:55 AM 37.0 °F 32.4 °F 33.8 °F 88% 30.47 in 10.0 mi SE 5.8 mph - N/A   Overcast
7:15 AM 37.9 °F 35.5 °F 34.5 °F 87% 30.47 in 10.0 mi SE 3.5 mph - N/A Rain Light Rain
7:35 AM 38.7 °F 33.6 °F 34.7 °F 86% 30.46 in 10.0 mi SSE 6.9 mph - N/A   Light Drizzle
7:55 AM 38.7 °F 33.6 °F 34.9 °F 86% 30.46 in 10.0 mi South 6.9 mph - N/A   Overcast
8:15 AM 38.7 °F 34.3 °F 34.7 °F 86% 30.45 in 10.0 mi South 5.8 mph - N/A   Overcast
8:35 AM 39.6 °F 33.5 °F 34.9 °F 83% 30.45 in 10.0 mi South 9.2 mph - N/A   Overcast
8:55 AM 39.7 °F 33.7 °F 34.7 °F 82% 30.44 in 10.0 mi South 9.2 mph - N/A   Overcast
9:15 AM 40.3 °F 37.1 °F 34.2 °F 79% 30.44 in 10.0 mi South 4.6 mph - N/A   Overcast
9:35 AM 40.8 °F 35.0 °F 34.2 °F 77% 30.43 in 10.0 mi SSW 9.2 mph - N/A   Overcast
9:55 AM 42.1 °F 36.6 °F 34.0 °F 73% 30.42 in 10.0 mi SSW 9.2 mph - N/A   Mostly Cloudy
10:15 AM 42.8 °F 38.0 °F 33.8 °F 70% 30.42 in 10.0 mi South 8.1 mph - N/A   Overcast
10:35 AM 44.2 °F 39.7 °F 34.0 °F 67% 30.41 in 10.0 mi South 8.1 mph - N/A   Mostly Cloudy
10:55 AM 44.1 °F 37.7 °F 33.1 °F 65% 30.41 in 10.0 mi South 12.7 mph - N/A   Mostly Cloudy
11:15 AM 44.8 °F 39.9 °F 32.9 °F 63% 30.40 in 10.0 mi South 9.2 mph 16.1 mph N/A   Overcast
11:35 AM 44.1 °F 39.5 °F 32.4 °F 63% 30.40 in 10.0 mi South 8.1 mph 16.1 mph N/A   Overcast
11:55 AM 44.1 °F 40.8 °F 32.4 °F 63% 30.38 in 10.0 mi South 5.8 mph - N/A   Overcast
12:15 PM 45.7 °F 41.5 °F 32.5 °F 60% 30.37 in 10.0 mi South 8.1 mph - N/A   Overcast
12:35 PM 45.0 °F 41.2 °F 32.2 °F 61% 30.37 in 10.0 mi SSW 6.9 mph - N/A   Overcast
12:55 PM 44.6 °F 40.2 °F 32.4 °F 62% 30.37 in 10.0 mi SSW 8.1 mph - N/A   Overcast
1:15 PM 44.8 °F 39.9 °F 32.5 °F 62% 30.36 in 10.0 mi SSW 9.2 mph - N/A   Overcast
1:35 PM 44.6 °F 39.2 °F 32.9 °F 64% 30.36 in 10.0 mi South 10.4 mph - N/A   Overcast
1:55 PM 45.0 °F 40.6 °F 34.3 °F 66% 30.35 in 10.0 mi South 8.1 mph - N/A   Overcast
2:15 PM 45.1 °F 41.4 °F 35.4 °F 69% 30.34 in 10.0 mi SSW 6.9 mph - N/A   Overcast
2:35 PM 43.3 °F 38.1 °F 35.6 °F 74% 30.35 in 10.0 mi South 9.2 mph - N/A   Overcast
2:55 PM 43.2 °F 37.4 °F 35.6 °F 75% 30.33 in 10.0 mi South 10.4 mph - N/A   Overcast
3:15 PM 42.8 °F 37.0 °F 35.4 °F 75% 30.33 in 10.0 mi South 10.4 mph - N/A   Overcast
3:55 PM 42.1 °F 37.7 °F 34.9 °F 76% 30.31 in 10.0 mi SSE 6.9 mph - N/A   Overcast
4:15 PM 41.7 °F 36.7 °F 35.6 °F 79% 30.30 in 5.0 mi South 8.1 mph - N/A   Haze
4:35 PM 41.7 °F 37.3 °F 35.6 °F 79% 30.30 in 10.0 mi South 6.9 mph - N/A   Overcast
4:55 PM 41.7 °F 38.0 °F 34.9 °F 77% 30.29 in 10.0 mi SSE 5.8 mph - N/A   Overcast
5:15 PM 41.2 °F 37.3 °F 35.8 °F 81% 30.28 in 7.0 mi South 5.8 mph - N/A Rain Rain
5:35 PM 41.0 °F 36.4 °F 36.3 °F 83% 30.28 in 7.0 mi South 6.9 mph - N/A Rain Light Rain
5:55 PM 41.0 °F 38.0 °F 36.3 °F 83% 30.26 in 7.0 mi South 4.6 mph - N/A   Drizzle
6:15 PM 40.6 °F 36.7 °F 36.5 °F 85% 30.25 in 7.0 mi SSE 5.8 mph - N/A   Drizzle
6:35 PM 40.5 °F 36.5 °F 36.5 °F 86% 30.25 in 7.0 mi South 5.8 mph - N/A Rain Rain
6:55 PM 40.5 °F 35.8 °F 36.7 °F 86% 30.23 in 7.0 mi South 6.9 mph - N/A Rain Light Rain
7:15 PM 40.3 °F 36.3 °F 36.5 °F 86% 30.23 in 7.0 mi South 5.8 mph - N/A   Drizzle
7:35 PM 40.1 °F 35.3 °F 36.5 °F 87% 30.22 in 7.0 mi South 6.9 mph - N/A Rain Rain
7:55 PM 39.7 °F 34.9 °F 36.5 °F 88% 30.22 in 7.0 mi South 6.9 mph - N/A Rain Rain
8:15 PM 39.6 °F 34.7 °F 36.5 °F 89% 30.21 in 7.0 mi South 6.9 mph - N/A   Drizzle
8:35 PM 39.6 °F 35.4 °F 36.5 °F 89% 30.21 in 7.0 mi South 5.8 mph - N/A Rain Light Rain
8:55 PM 39.2 °F 34.2 °F 36.1 °F 89% 30.21 in 7.0 mi South 6.9 mph - N/A Rain Light Rain
9:15 PM 38.8 °F 35.4 °F 36.0 °F 89% 30.21 in 7.0 mi South 4.6 mph - N/A Rain Rain
9:35 PM 38.7 °F 34.3 °F 35.8 °F 89% 30.21 in 5.0 mi South 5.8 mph - N/A Rain Light Rain
9:55 PM 38.7 °F 35.2 °F 36.0 °F 90% 30.20 in 7.0 mi South 4.6 mph - N/A Rain Rain
10:15 PM 38.7 °F 33.6 °F 36.0 °F 90% 30.18 in 2.5 mi SSE 6.9 mph - N/A Rain Rain
10:35 PM 37.9 °F 33.5 °F 35.6 °F 91% 30.17 in 4.0 mi SSE 5.8 mph - N/A Rain Rain
10:55 PM 37.9 °F 33.5 °F 35.6 °F 91% 30.16 in 1.8 mi South 5.8 mph - N/A Rain Light Rain
11:15 PM 37.8 °F 32.5 °F 35.2 °F 91% 30.14 in 3.0 mi South 6.9 mph - N/A Rain Heavy Rain
11:35 PM 37.8 °F 32.5 °F 35.6 °F 92% 30.13 in 2.5 mi South 6.9 mph - N/A   Drizzle
11:55 PM 37.8 °F 31.8 °F 35.6 °F 92% 30.13 in 3.0 mi South 8.1 mph - N/A   Drizzle